Lid_Strength_Index
8 8 7 7 7 9 14 20 22 16 16 20 21 22 18 14 15 14 15 16 16 17 17 18 17 17 16 13 13 16 12 17 22 21 17 19 23 23 23 26 24 24 25 29
8 8 8 7 8 11 18 21 21 17 18 24 23 20 18 15 16 16 16 17 15 15 17 19 16 15 12 12 13 13 13 19 26 23 19 18 24 22 22 23 23 29 29 28
8 8 8 8 8 10 18 21 23 21 20 21 23 23 20 19 14 15 15 16 16 16 17 15 17 15 12 11 12 9 12 17 19 24 23 20 23 21 22 22 25 27 27 27
8 8 9 9 9 10 18 21 24 23 26 23 23 24 20 20 19 16 15 16 16 17 20 17 18 14 14 12 12 14 15 22 18 18 18 18 20 22 22 25 24 26 26 26
8 8 9 9 9 11 19 22 23 23 24 23 24 23 23 21 18 18 18 18 17 17 19 18 18 15 15 16 15 17 14 21 17 19 17 18 21 20 21 22 23 23 24 26
8 9 9 10 9 13 19 20 21 23 23 25 27 25 22 20 18 17 16 17 18 19 17 15 14 13 13 14 17 18 18 17 18 21 18 18 23 22 21 22 22 23 26 24
9 9 9 10 10 13 18 20 22 26 26 25 22 21 20 19 19 20 17 16 18 16 15 15 14 14 13 15 18 16 20 18 19 22 23 31 21 17 18 21 21 21 21 21
9 9 9 10 11 12 18 19 22 27 30 23 22 21 21 20 20 20 18 17 16 16 17 23 23 20 19 18 17 18 19 22 24 27 26 23 19 19 20 22 22 20 22 21
9 9 9 10 11 12 18 19 20 24 26 26 22 23 23 26 26 22 18 17 16 17 18 22 27 26 25 23 20 16 16 22 23 23 26 26 23 18 16 17 24 19 20 21
10 10 10 10 11 12 17 18 19 22 27 24 23 25 25 23 26 28 22 19 19 17 22 24 26 27 23 26 26 24 23 24 28 24 26 24 19 18 17 23 23 19 19 20
10 10 10 10 10 12 16 18 18 22 29 24 20 19 25 24 26 27 20 22 21 21 27 26 26 26 28 27 26 28 28 30 26 22 25 26 17 19 24 22 20 18 18 19
10 10 10 10 10 11 15 19 16 18 22 22 18 18 17 18 18 23 23 21 22 21 26 27 26 24 27 31 28 24 26 25 27 25 22 18 18 20 21 26 24 22 21 18
11 10 10 10 10 12 15 18 18 18 22 21 21 20 18 15 16 15 22 20 21 23 20 25 28 28 24 28 26 28 24 22 26 25 22 23 25 25 22 23 24 26 25 21
10 11 10 10 11 12 15 19 18 19 21 24 23 17 18 16 15 14 14 18 19 21 21 31 28 23 22 26 26 25 25 24 28 26 24 25 22 23 25 25 25 25 24 24
9 10 10 11 11 13 17 18 18 17 21 24 23 19 18 17 16 15 15 18 25 26 27 30 27 25 25 30 26 28 27 24 26 24 23 23 23 26 29 26 24 24 27 24
10 11 11 11 11 13 17 21 18 16 17 23 25 19 20 18 17 16 18 20 27 28 25 29 32 28 25 29 31 24 28 32 25 21 27 26 26 28 30 27 24 28 28 27
10 11 11 11 13 18 20 21 18 15 18 23 26 23 20 20 19 19 19 21 24 24 31 27 26 25 23 30 30 21 26 26 29 32 26 24 29 22 28 27 27 25 26 26
11 11 11 11 12 14 18 17 15 17 21 23 33 28 24 21 25 25 20 24 22 22 26 26 25 24 26 27 22 26 30 31 30 27 26 24 27 28 27 29 30 26 25 24
11 11 12 17 19 22 21 14 17 20 20 29 30 29 29 22 23 25 23 23 26 23 27 25 21 27 28 23 24 28 26 23 22 27 27 25 25 22 22 23 24 23 22 21
11 16 19 23 20 15 16 21 23 24 26 26 28 27 29 26 25 25 27 26 27 31 27 22 27 28 25 28 28 28 26 25 26 21 21 21 20 18 18 18 17 17 16 16
18 21 22 20 16 21 25 29 29 29 31 30 31 30 30 24 30 29 26 31 28 32 26 28 29 28 27 27 27 26 23 21 21 19 18 17 17 17 17 16 16 15 15 15
18 19 20 21 24 26 28 32 29 31 29 29 29 28 27 26 25 30 31 32 31 32 26 30 32 26 25 28 24 21 21 18 18 18 18 18 17 17 17 16 16 15 14 14
20 22 26 25 27 28 28 30 28 30 33 30 28 30 26 25 28 34 34 34 32 29 35 31 28 29 26 25 24 20 19 18 17 16 16 16 16 16 16 15 14 13 14 14
24 28 28 27 29 28 28 27 27 27 29 29 28 28 27 25 29 32 34 33 31 35 35 31 29 27 25 24 22 22 19 17 17 17 16 16 16 15 14 13 12 14 15 14
27 28 26 28 26 28 29 31 29 27 28 29 28 28 27 28 33 28 33 34 34 30 29 28 27 26 27 22 19 20 20 18 19 18 17 16 15 15 14 13 14 14 14 15
28 29 27 27 28 28 29 29 29 26 27 27 27 31 33 33 32 33 33 33 32 27 29 25 27 23 25 21 19 19 19 20 19 18 16 14 14 15 16 16 15 16 15 15
29 28 25 26 28 26 27 26 25 24 25 27 30 32 29 33 35 33 29 30 26 26 24 22 21 20 20 20 19 18 18 17 16 16 15 16 15 17 17 19 15 15 15 16